Weather in Sobolevo

Russia / Orenburg Oblast     51°56′28″N   51°43′11″E
temp.,
°C
wind,
m/s
gust,
m/s
humid.,
%
clouds,
%
prec.,
mm/h
press.,
hPa
HPBL,
m
15 may, sat
sat1523:00+20sse33447 0.0 102331
02:00+18sse34437 0.0 102247
05:00+17sse33430 0.0 102322
08:00+19se37480 0.0 1023177
11:00+26sse57320 0.0 1023549
14:00+30s56242 0.0 10221902
17:00+30s56243 0.0 10212532
20:00+26s22390 0.0 102113
16 may, sun
sun1623:00+22se22430 0.0 102111
02:00+20ese33480 0.0 102018
05:00+18se33530 0.0 102125
08:00+21se25514 0.0 1021144
11:00+27sse46344 0.0 1021525
14:00+31s66245 0.0 10203497
17:00+31ssw56225 0.0 10193525
20:00+27ssw22360 0.0 101821
17 may, mon
mon1723:00+21se47495 0.0 1019101
02:00+19sse22502 0.0 101912
05:00+18se22545 0.0 102013
08:00+21se245412 0.0 1021147
11:00+27sse34385 0.0 1020522
14:00+30sse33275 0.0 10201973
17:00+31s44215 0.0 10193152
20:00+27ssw33365 0.0 101837
18 may, tue
tue1823:00+22wsw003776 0.0 101911
02:00+20ne334382 0.0 101923
05:00+19e22446 0.0 101811
08:00+22ese254746 0.0 1019138
11:00+28se452954 0.0 1018634
14:00+31se32195 0.0 10173159
17:00+32ese23185 0.0 10163748
20:00+27e463439 0.0 101693
19 may, wed
wed1923:00+23e462854 0.0 101675
02:00+21e46495 0.0 101682
05:00+18ese335524 0.0 101642
08:00+22e345215 0.0 1016144
11:00+28ese45375 0.0 1015739
14:00+31se54285 0.0 10143165
17:00+31se342413 0.0 10132985
20:00+24ese594233 0.0 1013136